Location: Bowman Observatory
(41.0326°N, 73.6210°W)
Time: 23:38:05
(UTC-04:00)

Cosmos 2297 - Visible Passes

Search period start: 24 July 2014 00:00
Search period end: 03 August 2014 00:00
Orbit: 835 x 860 km, 71.0° (Epoch: 24 July)

Date Brightness Start Highest point End Pass type
(mag) Time Alt. Az. Time Alt. Az. Time Alt. Az.
24 Jul 4.5 04:37:17 10° S 04:42:43 51° ESE 04:48:12 10° NNE visible
25 Jul 4.5 04:24:03 10° S 04:29:28 50° ESE 04:34:57 10° NE visible
26 Jul 4.5 04:10:57 11° S 04:16:13 49° ESE 04:21:42 10° NE visible
27 Jul 4.5 03:58:29 15° S 04:02:59 48° ESE 04:08:26 10° NE visible
28 Jul 4.5 03:45:57 19° S 03:49:44 47° ESE 03:55:10 10° NE visible
29 Jul 4.5 03:33:23 24° SSE 03:36:30 46° ESE 03:41:55 10° NE visible
29 Jul 4.9 05:16:07 10° WSW 05:20:52 27° NW 05:25:41 10° N visible
30 Jul 4.5 03:20:46 28° SSE 03:23:15 45° ESE 03:28:39 10° NE visible
30 Jul 4.9 05:02:49 10° WSW 05:07:36 28° NW 05:12:27 10° N visible
31 Jul 4.5 03:08:07 33° SSE 03:10:00 44° ESE 03:15:23 10° NE visible
31 Jul 4.9 04:50:04 12° WSW 04:54:21 28° NW 04:59:13 10° N visible
01 Aug 4.4 02:55:25 37° SE 02:56:46 43° ESE 03:02:08 10° NE visible
01 Aug 4.9 04:37:22 15° WSW 04:41:05 29° NW 04:45:59 10° N visible
02 Aug 4.4 02:42:41 40° SE 02:43:31 42° ESE 02:48:52 10° NE visible
02 Aug 4.9 04:24:37 18° WSW 04:27:49 29° NW 04:32:45 10° N visible
